Location: Taipo
(41.0000°S, 175.9500°E)
Time: 12:08:57
(UTC+00:00)

Cosmos 2251 Rocket - Pass Details

Date: 18 April 2024
Orbit: 763 x 790 km, 74.0° (Epoch: 24 May)

Event Time Altitude Azimuth Distance (km) Brightness Sun altitude
Rises 16:46:26 0° 199° (SSW) 3,317 6.7 -24.0°
Reaches altitude 10° 16:48:52 10° 197° (SSW) 2,377 5.9 -23.6°
Maximum altitude 16:54:18 78° 110° (ESE) 812 3.6 -22.6°
Drops below altitude 10° 16:59:36 10° 23° (NNE) 2,330 6.2 -21.6°
Sets 17:01:58 0° 21° (NNE) 3,245 7.0 -21.1°
